Regional Weather Roundup
Issued by NWS

Home | Current Version | Previous Version | Text Only | Print | Product List | Glossary Off
Versions: 1 2 3 4 5 6 7 8 9 10 11 12 13 14 15 16 17 18 19 20 21 22 23 24 25 26 27 28 29 30 31 32 33 34 35 36 37 38 39 40 41 42 43 44 45 46 47 48 49 50

000
ASUS45 KABQ 041310
RWRNM
NEW MEXICO REGIONAL WEATHER ROUNDUP
NATIONAL WEATHER SERVICE ALBUQUERQUE NM
700 AM MDT TUE AUG 04 2015

NOTE: "FAIR" MEANS FEW OR NO CLOUDS BELOW 12,000 FEET AGL WITH NO
       SIGNIFICANT WEATHER OR OBSTRUCTIONS TO VISION.

      THIS PRODUCT IS RELEASED AS TWO VERSIONS.  ONE VERSION NEAR
      THE TOP OF THE HOUR CONTAINING PRELIMINARY DATA FROM ALBUQUERQUE
      AND OTHER STATIONS.  A FINAL VERSION WITH ADDITIONAL DATA IS
      ISSUED ABOUT 10 MINUTES AFTER THE HOUR.

NMZ501-503-504-510>518-041400-
NORTHWEST PLATEAU/NORTHCENTRAL MOUNTAINS

CITY           SKY/WX    TMP DP  RH WIND       PRES   REMARKS
FARMINGTON     MOCLDY    63  46  54 E6        30.19R
LOS ALAMOS     CLEAR     60  45  55 CALM      30.32R
SANTA FE       CLEAR     59  49  69 N10       30.25R
TAOS           CLEAR     48  37  66 N3        30.32R
ANGEL FIRE     FAIR      41  41  97 CALM      30.41R

$$
NMZ402-403-502-505>509-041400-
WESTCENTRAL MOUNTAINS/SOUTHWEST MOUNTAINS

CITY           SKY/WX    TMP DP  RH WIND       PRES   REMARKS
GALLUP         CLEAR     54  49  83 CALM      30.28R
GRANTS         CLEAR     53  51  95 NW3       30.31R
SILVER CITY      N/A     63  57  82 N8        30.20R

$$
NMZ407-409-411-412-041400-
SOUTHERN DESERTS

CITY           SKY/WX    TMP DP  RH WIND       PRES   REMARKS
LORDSBURG      FAIR      66  59  77 CALM      30.10S
DEMING         PTCLDY    68  60  75 SE3       30.11R
LAS CRUCES     CLEAR     69  61  76 SE5       30.15R
HOLLOMAN AFB   PTCLDY    68  56  66 N2        30.10R
ALAMOGORDO     CLEAR     68  57  68 N3        30.12R
T OR C         CLEAR     68  60  75 W5        30.15R

$$
NMZ519>523-041400-
CENTRAL VALLEYS/CENTRAL HIGHLANDS

CITY           SKY/WX    TMP DP  RH WIND       PRES   REMARKS
ALBUQUERQUE    PTCLDY    65  48  54 NW5       30.20R
DOUBLE EAGLE   PTCLDY    57  52  82 CALM      30.23R
MORIARTY ARPT    N/A     54  49  83 CALM      30.28R
CLINES CORNERS CLEAR     57  53  86 CALM      30.29R
BELEN          FAIR      63  49  60 CALM      30.18R
SOCORRO        FAIR      65  56  73 S5        30.16R

$$
NMZ524>526-539-540-041400-
SOUTHCENTRAL MOUNTAINS

CITY           SKY/WX    TMP DP  RH WIND       PRES   REMARKS
RUIDOSO          N/A    N/A N/A N/A MISG        N/A

$$
NMZ527>531-041400-
NORTHEAST HIGHLANDS/NORTHEAST PLAINS

CITY           SKY/WX    TMP DP  RH WIND       PRES   REMARKS
RATON          CLEAR     57  55  93 CALM      30.22R
CLAYTON        SUNNY     62  57  83 SW8       30.11F

$$
NMZ532>537-041400-
EASTCENTRAL PLAINS

CITY           SKY/WX    TMP DP  RH WIND       PRES   REMARKS
TUCUMCARI      CLEAR     65  62  90 N7        30.08R
CANNON AFB     CLEAR     64  62  96 E5        30.09S
CLOVIS AIRPORT CLEAR     63  61  94 NE5       30.11S

$$
NMZ028-029-538-041400-
SOUTHEAST PLAINS

CITY           SKY/WX    TMP DP  RH WIND       PRES   REMARKS
ROSWELL        PTCLDY    66  62  87 CALM      30.06R
ARTESIA        CLEAR     68  68 100 S9        30.06R
CARLSBAD       CLEAR     69  65  86 S8        30.03R
HOBBS          CLEAR     70  64  83 S3        30.07R


$$



USA.gov is the U.S. government's official web portal to all federal, state and local government web resources and services.